| time (UTC) | temp F | wind direction | speed knots | gust knots | rain 1hr in | rain 24hr in | rain mn in | humidity % | barometer mb |
| 20260906103512 | 68 | 139 | 1.7 | 4.3 | 0.00 | 0.00 | 0.00 | 90 | 1016.4 |
| 20260906103024 | 68 | 133 | 0.9 | 4.3 | 0.00 | 0.00 | 0.00 | 89 | 1016.4 |
| 20260906102515 | 69 | 125 | 1.7 | 5.2 | 0.00 | 0.00 | 0.00 | 89 | 1016.3 |
| 20260906102016 | 68 | 150 | 0.0 | 5.2 | 0.00 | 0.00 | 0.00 | 89 | 1016.3 |
| 20260906101525 | 68 | 94 | 0.9 | 3.5 | 0.00 | 0.00 | 0.00 | 89 | 1016.2 |
| 20260906101014 | 69 | 154 | 0.9 | 2.6 | 0.00 | 0.00 | 0.00 | 89 | 1016.2 |
| 20260906100518 | 69 | 126 | 0.0 | 5.2 | 0.00 | 0.00 | 0.00 | 89 | 1016.3 |
| 20260906100024 | 69 | 130 | 2.6 | 5.2 | 0.00 | 0.00 | 0.00 | 89 | 1016.2 |
| 20260906095505 | 69 | 134 | 0.9 | 3.5 | 0.00 | 0.00 | 0.00 | 89 | 1016.3 |
| 20260906095008 | 69 | 126 | 0.9 | 3.5 | 0.00 | 0.00 | 0.00 | 89 | 1016.2 |
| 20260906094526 | 69 | 117 | 1.7 | 3.5 | 0.00 | 0.00 | 0.00 | 89 | 1016.2 |
| 20260906094012 | 69 | 143 | 0.9 | 4.3 | 0.00 | 0.00 | 0.00 | 88 | 1016.2 |
| 20260906093508 | 69 | 124 | 1.7 | 4.3 | 0.00 | 0.00 | 0.00 | 88 | 1016.2 |
| 20260906093019 | 69 | 144 | 1.7 | 4.3 | 0.00 | 0.00 | 0.00 | 88 | 1016.2 |
| 20260906092515 | 69 | 130 | 1.7 | 5.2 | 0.00 | 0.00 | 0.00 | 88 | 1016.2 |
| 20260906092019 | 69 | 120 | 2.6 | 5.2 | 0.00 | 0.00 | 0.00 | 88 | 1016.1 |
| 20260906091527 | 69 | 152 | 2.6 | 6.1 | 0.00 | 0.00 | 0.00 | 87 | 1016.1 |
| 20260906091016 | 69 | 143 | 3.5 | 6.1 | 0.00 | 0.00 | 0.00 | 88 | 1016.1 |
| 20260906090520 | 69 | 169 | 2.6 | 6.1 | 0.00 | 0.00 | 0.00 | 88 | 1016.0 |
| 20260906090027 | 69 | 149 | 3.5 | 6.1 | 0.00 | 0.00 | 0.00 | 88 | 1016.0 |
| 20260906085514 | 70 | 128 | 4.3 | 6.1 | 0.00 | 0.00 | 0.00 | 87 | 1016.0 |
| 20260906085007 | 70 | 143 | 2.6 | 6.1 | 0.00 | 0.00 | 0.00 | 87 | 1016.1 |
| 20260906084508 | 70 | 136 | 2.6 | 5.2 | 0.00 | 0.00 | 0.00 | 87 | 1016.0 |
| 20260906084013 | 70 | 169 | 3.5 | 5.2 | 0.00 | 0.00 | 0.00 | 88 | 1016.1 |
| 20260906083507 | 70 | 151 | 2.6 | 6.1 | 0.00 | 0.00 | 0.00 | 88 | 1016.0 |
| 20260906083015 | 70 | 153 | 2.6 | 6.1 | 0.00 | 0.00 | 0.00 | 87 | 1015.9 |
| 20260906082512 | 70 | 117 | 2.6 | 5.2 | 0.00 | 0.00 | 0.00 | 87 | 1015.9 |
| 20260906082012 | 70 | 138 | 2.6 | 5.2 | 0.00 | 0.00 | 0.00 | 88 | 1015.9 |
| 20260906081540 | 70 | 116 | 3.5 | 5.2 | 0.00 | 0.00 | 0.00 | 87 | 1015.9 |
| 20260906081013 | 70 | 162 | 2.6 | 5.2 | 0.00 | 0.00 | 0.00 | 87 | 1015.9 |
| 20260906080519 | 70 | 127 | 2.6 | 6.1 | 0.00 | 0.00 | 0.00 | 87 | 1016.0 |
| 20260906080025 | 70 | 167 | 2.6 | 6.1 | 0.00 | 0.00 | 0.00 | 87 | 1015.9 |
| 20260906075514 | 70 | 148 | 1.7 | 7.0 | 0.00 | 0.00 | 0.00 | 87 | 1015.8 |
| 20260906075015 | 70 | 133 | 4.3 | 7.0 | 0.00 | 0.00 | 0.00 | 87 | 1015.7 |
| 20260906074527 | 71 | 129 | 3.5 | 5.2 | 0.00 | 0.00 | 0.00 | 86 | 1015.7 |
| 20260906074006 | 71 | 138 | 3.5 | 5.2 | 0.00 | 0.00 | 0.00 | 86 | 1015.7 |
| 20260906073509 | 71 | 161 | 2.6 | 10.4 | 0.00 | 0.00 | 0.00 | 86 | 1015.7 |
| 20260906073016 | 71 | 124 | 2.6 | 10.4 | 0.00 | 0.00 | 0.00 | 86 | 1015.7 |
| 20260906072511 | 71 | 144 | 5.2 | 10.4 | 0.00 | 0.00 | 0.00 | 86 | 1015.7 |
| 20260906072007 | 71 | 123 | 2.6 | 8.7 | 0.00 | 0.00 | 0.00 | 87 | 1015.6 |
| 20260906071520 | 71 | 129 | 2.6 | 8.7 | 0.00 | 0.00 | 0.00 | 87 | 1015.6 |
| 20260906071014 | 71 | 115 | 2.6 | 7.8 | 0.00 | 0.00 | 0.00 | 88 | 1015.6 |
| 20260906070519 | 71 | 121 | 4.3 | 7.8 | 0.00 | 0.00 | 0.00 | 88 | 1015.6 |
| 20260906070025 | 72 | 142 | 4.3 | 6.1 | 0.00 | 0.00 | 0.00 | 87 | 1015.7 |
| 20260906065516 | 72 | 146 | 4.3 | 7.8 | 0.00 | 0.00 | 0.00 | 87 | 1015.7 |
| 20260906065013 | 72 | 159 | 3.5 | 8.7 | 0.00 | 0.00 | 0.00 | 87 | 1015.7 |
| 20260906064526 | 72 | 159 | 3.5 | 8.7 | 0.00 | 0.00 | 0.00 | 88 | 1015.7 |
| 20260906064014 | 72 | 117 | 1.7 | 5.2 | 0.00 | 0.00 | 0.00 | 88 | 1015.6 |
| 20260906063514 | 72 | 150 | 3.5 | 5.2 | 0.00 | 0.00 | 0.00 | 87 | 1015.6 |
| 20260906063008 | 72 | 155 | 3.5 | 5.2 | 0.00 | 0.00 | 0.00 | 87 | 1015.6 |
| 20260906062513 | 72 | 124 | 1.7 | 6.1 | 0.00 | 0.00 | 0.00 | 87 | 1015.6 |
| 20260906062009 | 72 | 144 | 2.6 | 6.1 | 0.00 | 0.00 | 0.00 | 87 | 1015.6 |
| 20260906061519 | 72 | 135 | 2.6 | 5.2 | 0.00 | 0.00 | 0.00 | 87 | 1015.6 |
| 20260906061010 | 73 | 116 | 3.5 | 5.2 | 0.00 | 0.00 | 0.00 | 87 | 1015.5 |
| 20260906060513 | 73 | 117 | 2.6 | 5.2 | 0.00 | 0.00 | 0.00 | 87 | 1015.5 |
| 20260906060023 | 72 | 129 | 0.9 | 5.2 | 0.00 | 0.00 | 0.00 | 88 | 1015.5 |
| 20260906055515 | 73 | 140 | 3.5 | 5.2 | 0.00 | 0.00 | 0.00 | 87 | 1015.4 |
| 20260906055016 | 73 | 128 | 1.7 | 5.2 | 0.00 | 0.00 | 0.00 | 88 | 1015.4 |
| 20260906054525 | 73 | 181 | 2.6 | 5.2 | 0.00 | 0.00 | 0.00 | 88 | 1015.3 |
| 20260906054014 | 73 | 143 | 3.5 | 6.1 | 0.00 | 0.00 | 0.00 | 88 | 1015.3 |
| 20260906053515 | 73 | 164 | 1.7 | 6.1 | 0.00 | 0.00 | 0.00 | 88 | 1015.3 |
| 20260906053026 | 73 | 129 | 1.7 | 6.1 | 0.00 | 0.00 | 0.00 | 89 | 1015.3 |
| 20260906052507 | 73 | 165 | 3.5 | 6.1 | 0.00 | 0.00 | 0.00 | 89 | 1015.2 |
| 20260906052006 | 73 | 160 | 4.3 | 6.1 | 0.00 | 0.00 | 0.00 | 89 | 1015.2 |
| 20260906051507 | 73 | 124 | 1.7 | 3.5 | 0.00 | 0.00 | 0.00 | 89 | 1015.3 |
| 20260906051010 | 73 | 107 | 0.9 | 3.5 | 0.00 | 0.00 | 0.00 | 89 | 1015.3 |
| 20260906050509 | 73 | 127 | 1.7 | 4.3 | 0.00 | 0.00 | 0.00 | 88 | 1015.2 |
| 20260906050019 | 73 | 129 | 2.6 | 4.3 | 0.00 | 0.00 | 0.00 | 88 | 1015.2 |
| 20260906045515 | 73 | 124 | 0.9 | 4.3 | 0.00 | 0.00 | 0.00 | 88 | 1015.1 |
| 20260906045011 | 73 | 116 | 1.7 | 4.3 | 0.00 | 0.00 | 0.00 | 88 | 1015.1 |
| 20260906044533 | 73 | 127 | 2.6 | 4.3 | 0.00 | 0.00 | 0.00 | 87 | 1015.0 |
| 20260906044012 | 73 | 131 | 1.7 | 4.3 | 0.00 | 0.00 | 0.00 | 88 | 1015.0 |
| 20260906043514 | 73 | 154 | 2.6 | 5.2 | 0.00 | 0.00 | 0.00 | 87 | 1014.9 |
| 20260906043025 | 74 | 131 | 2.6 | 5.2 | 0.00 | 0.00 | 0.00 | 87 | 1015.0 |
| 20260906042516 | 73 | 155 | 1.7 | 4.3 | 0.00 | 0.00 | 0.00 | 87 | 1014.9 |
| 20260906042016 | 73 | 120 | 2.6 | 7.0 | 0.00 | 0.00 | 0.00 | 87 | 1015.0 |
| 20260906041509 | 73 | 138 | 3.5 | 7.8 | 0.00 | 0.00 | 0.00 | 87 | 1014.9 |
| 20260906041006 | 73 | 141 | 3.5 | 7.8 | 0.00 | 0.00 | 0.00 | 87 | 1014.9 |
| 20260906040508 | 73 | 133 | 3.5 | 7.0 | 0.00 | 0.00 | 0.00 | 87 | 1015.0 |
| 20260906040014 | 74 | 122 | 4.3 | 7.0 | 0.00 | 0.00 | 0.00 | 86 | 1015.0 |
| 20260906035511 | 74 | 112 | 2.6 | 5.2 | 0.00 | 0.00 | 0.00 | 86 | 1014.9 |
| 20260906035010 | 73 | 128 | 1.7 | 7.0 | 0.00 | 0.00 | 0.00 | 87 | 1015.0 |
| 20260906034518 | 73 | 120 | 4.3 | 8.7 | 0.00 | 0.00 | 0.00 | 86 | 1015.0 |
| 20260906034012 | 74 | 134 | 6.1 | 8.7 | 0.00 | 0.00 | 0.00 | 86 | 1015.2 |
| 20260906033513 | 74 | 174 | 4.3 | 7.8 | 0.00 | 0.00 | 0.00 | 85 | 1015.1 |
| 20260906033027 | 74 | 141 | 1.7 | 8.7 | 0.00 | 0.00 | 0.00 | 86 | 1015.2 |
| 20260906032515 | 74 | 123 | 4.3 | 8.7 | 0.00 | 0.00 | 0.00 | 86 | 1015.0 |
| 20260906032016 | 74 | 139 | 5.2 | 7.8 | 0.00 | 0.00 | 0.00 | 86 | 1015.0 |
| 20260906031541 | 74 | 147 | 4.3 | 7.0 | 0.00 | 0.00 | 0.00 | 85 | 1014.9 |
| 20260906031014 | 74 | 134 | 3.5 | 9.6 | 0.00 | 0.00 | 0.00 | 85 | 1014.9 |
| 20260906030509 | 74 | 155 | 4.3 | 9.6 | 0.00 | 0.00 | 0.00 | 85 | 1014.9 |
| 20260906030012 | 74 | 133 | 5.2 | 9.6 | 0.00 | 0.00 | 0.00 | 85 | 1014.9 |
| 20260906025508 | 74 | 129 | 5.2 | 8.7 | 0.00 | 0.00 | 0.00 | 85 | 1014.8 |
| 20260906025006 | 74 | 160 | 3.5 | 7.8 | 0.00 | 0.00 | 0.00 | 85 | 1014.7 |
| 20260906024514 | 74 | 141 | 4.3 | 7.0 | 0.00 | 0.00 | 0.00 | 84 | 1014.8 |
| 20260906024012 | 74 | 101 | 2.6 | 7.8 | 0.00 | 0.00 | 0.00 | 84 | 1014.8 |
| 20260906023511 | 74 | 151 | 0.9 | 9.6 | 0.00 | 0.00 | 0.00 | 84 | 1014.6 |
| 20260906023024 | 74 | 84 | 3.5 | 9.6 | 0.00 | 0.00 | 0.00 | 84 | 1014.5 |
| 20260906022514 | 75 | 114 | 4.3 | 9.6 | 0.00 | 0.00 | 0.00 | 84 | 1014.3 |
| 20260906022014 | 75 | 106 | 5.2 | 9.6 | 0.00 | 0.00 | 0.00 | 83 | 1014.4 |
| 20260906021526 | 75 | 128 | 6.1 | 10.4 | 0.00 | 0.00 | 0.00 | 83 | 1014.3 |
| 20260906021015 | 75 | 71 | 7.0 | 10.4 | 0.00 | 0.00 | 0.00 | 83 | 1014.3 |
| 20260906020516 | 75 | 98 | 3.5 | 10.4 | 0.00 | 0.00 | 0.00 | 83 | 1014.2 |
| 20260906020004 | 75 | 139 | 6.1 | 10.4 | 0.00 | 0.00 | 0.00 | 83 | 1014.1 |
| 20260906015509 | 76 | 88 | 5.2 | 13.0 | 0.00 | 0.00 | 0.00 | 82 | 1014.1 |
| 20260906015006 | 76 | 86 | 7.0 | 13.0 | 0.00 | 0.00 | 0.00 | 81 | 1014.1 |
| 20260906014509 | 76 | 118 | 3.5 | 10.4 | 0.00 | 0.00 | 0.00 | 82 | 1014.1 |
| 20260906014015 | 76 | 128 | 3.5 | 13.9 | 0.00 | 0.00 | 0.00 | 82 | 1014.1 |
| 20260906013508 | 76 | 89 | 6.1 | 14.8 | 0.00 | 0.00 | 0.00 | 81 | 1013.9 |
| 20260906013028 | 76 | 79 | 8.7 | 14.8 | 0.00 | 0.00 | 0.00 | 81 | 1013.8 |
| 20260906012510 | 77 | 132 | 5.2 | 13.0 | 0.00 | 0.00 | 0.00 | 80 | 1013.8 |
| 20260906012013 | 77 | 112 | 6.1 | 13.0 | 0.00 | 0.00 | 0.00 | 80 | 1013.8 |
| 20260906011523 | 77 | 65 | 6.1 | 14.8 | 0.00 | 0.00 | 0.00 | 79 | 1013.7 |
| 20260906011019 | 78 | 119 | 7.0 | 14.8 | 0.00 | 0.00 | 0.00 | 79 | 1013.6 |
| 20260906010515 | 78 | 44 | 6.1 | 13.9 | 0.00 | 0.00 | 0.00 | 79 | 1013.5 |
| 20260906010026 | 78 | 119 | 7.0 | 13.9 | 0.00 | 0.00 | 0.00 | 79 | 1013.4 |
| 20260906005514 | 79 | 91 | 6.1 | 8.7 | 0.00 | 0.00 | 0.00 | 78 | 1013.3 |
| 20260906005003 | 79 | 103 | 5.2 | 12.2 | 0.00 | 0.00 | 0.00 | 78 | 1013.1 |
| 20260906004510 | 79 | 130 | 7.0 | 12.2 | 0.00 | 0.00 | 0.00 | 78 | 1013.1 |
| 20260906004013 | 80 | 117 | 4.3 | 11.3 | 0.00 | 0.00 | 0.00 | 77 | 1013.0 |
| 20260906003506 | 80 | 117 | 5.2 | 10.4 | 0.00 | 0.00 | 0.00 | 76 | 1013.1 |
| 20260906003022 | 80 | 47 | 4.3 | 11.3 | 0.00 | 0.00 | 0.00 | 76 | 1013.2 |
| 20260906002507 | 81 | 65 | 4.3 | 11.3 | 0.00 | 0.00 | 0.00 | 75 | 1013.1 |
| 20260906002013 | 81 | 134 | 7.8 | 11.3 | 0.00 | 0.00 | 0.00 | 75 | 1013.0 |
| 20260906001519 | 81 | 99 | 5.2 | 9.6 | 0.00 | 0.00 | 0.00 | 75 | 1013.0 |
| 20260906001011 | 82 | 119 | 3.5 | 11.3 | 0.00 | 0.00 | 0.00 | 74 | 1013.1 |
| 20260906000512 | 82 | 85 | 4.3 | 11.3 | 0.00 | 0.00 | 0.00 | 73 | 1013.1 |
| 20260906000026 | 83 | 75 | 6.1 | 12.2 | 0.00 | 0.00 | 0.00 | 73 | 1012.9 |
| 20260905235516 | 83 | 131 | 6.1 | 12.2 | 0.00 | 0.00 | 0.00 | 72 | 1012.8 |
| 20260905235018 | 83 | 110 | 6.1 | 12.2 | 0.00 | 0.00 | 0.00 | 72 | 1012.7 |
| 20260905234523 | 84 | 160 | 7.0 | 13.0 | 0.00 | 0.00 | 0.00 | 71 | 1012.7 |
| 20260905234004 | 84 | 75 | 7.8 | 13.0 | 0.00 | 0.00 | 0.00 | 71 | 1012.6 |
| 20260905233505 | 84 | 111 | 5.2 | 10.4 | 0.00 | 0.00 | 0.00 | 71 | 1012.6 |
| 20260905233013 | 85 | 115 | 4.3 | 9.6 | 0.00 | 0.00 | 0.00 | 70 | 1012.7 |
| 20260905232510 | 85 | 110 | 6.1 | 11.3 | 0.00 | 0.00 | 0.00 | 70 | 1012.6 |
| 20260905232007 | 85 | 100 | 7.0 | 15.6 | 0.00 | 0.00 | 0.00 | 69 | 1012.6 |
| 20260905231516 | 85 | 72 | 7.0 | 15.6 | 0.00 | 0.00 | 0.00 | 69 | 1012.7 |
| 20260905231009 | 86 | 111 | 6.1 | 9.6 | 0.00 | 0.00 | 0.00 | 69 | 1012.6 |
| 20260905230517 | 86 | 98 | 5.2 | 10.4 | 0.00 | 0.00 | 0.00 | 69 | 1012.6 |
| 20260905230026 | 86 | 120 | 4.3 | 13.9 | 0.00 | 0.00 | 0.00 | 69 | 1012.6 |
| 20260905225514 | 86 | 138 | 6.1 | 13.9 | 0.00 | 0.00 | 0.00 | 68 | 1012.5 |
| 20260905225013 | 87 | 102 | 7.0 | 12.2 | 0.00 | 0.00 | 0.00 | 68 | 1012.4 |
| 20260905224526 | 87 | 117 | 5.2 | 13.0 | 0.00 | 0.00 | 0.00 | 68 | 1012.4 |
| 20260905224013 | 87 | 131 | 7.0 | 15.6 | 0.00 | 0.00 | 0.00 | 67 | 1012.4 |
| 20260905223506 | 87 | 68 | 7.8 | 15.6 | 0.00 | 0.00 | 0.00 | 68 | 1012.2 |
| 20260905223027 | 87 | 97 | 7.8 | 14.8 | 0.00 | 0.00 | 0.00 | 68 | 1012.1 |
| 20260905222506 | 88 | 102 | 7.0 | 15.6 | 0.00 | 0.00 | 0.00 | 67 | 1012.0 |
| 20260905222009 | 88 | 126 | 10.4 | 15.6 | 0.00 | 0.00 | 0.00 | 67 | 1012.0 |
| 20260905221533 | 88 | 77 | 10.4 | 16.5 | 0.00 | 0.00 | 0.00 | 66 | 1011.9 |
| 20260905221008 | 89 | 98 | 7.0 | 16.5 | 0.00 | 0.00 | 0.00 | 67 | 1011.9 |
| 20260905220510 | 89 | 68 | 5.2 | 15.6 | 0.00 | 0.00 | 0.00 | 68 | 1011.9 |
| 20260905220020 | 89 | 83 | 8.7 | 15.6 | 0.00 | 0.00 | 0.00 | 67 | 1011.8 |
| 20260905215517 | 89 | 101 | 8.7 | 15.6 | 0.00 | 0.00 | 0.00 | 66 | 1011.8 |
| 20260905215015 | 90 | 103 | 7.8 | 14.8 | 0.00 | 0.00 | 0.00 | 67 | 1011.8 |
| 20260905214523 | 90 | 94 | 3.5 | 13.0 | 0.00 | 0.00 | 0.00 | 68 | 1011.8 |
| 20260905214015 | 90 | 122 | 8.7 | 13.0 | 0.00 | 0.00 | 0.00 | 68 | 1011.8 |
| 20260905213512 | 90 | 86 | 6.1 | 18.2 | 0.00 | 0.00 | 0.00 | 68 | 1011.8 |
| 20260905213023 | 90 | 107 | 10.4 | 18.2 | 0.00 | 0.00 | 0.00 | 67 | 1011.7 |
| 20260905212504 | 90 | 113 | 8.7 | 17.4 | 0.00 | 0.00 | 0.00 | 67 | 1011.7 |
| 20260905212003 | 91 | 126 | 7.0 | 14.8 | 0.00 | 0.00 | 0.00 | 67 | 1011.5 |
| 20260905211522 | 91 | 133 | 7.8 | 14.8 | 0.00 | 0.00 | 0.00 | 67 | 1011.5 |
| 20260905211006 | 91 | 94 | 6.1 | 14.8 | 0.00 | 0.00 | 0.00 | 67 | 1011.5 |
| 20260905210510 | 91 | 68 | 7.0 | 12.2 | 0.00 | 0.00 | 0.00 | 67 | 1011.6 |
| 20260905210016 | 91 | 91 | 6.1 | 9.6 | 0.00 | 0.00 | 0.00 | 66 | 1011.6 |
| 20260905205511 | 91 | 46 | 5.2 | 13.9 | 0.00 | 0.00 | 0.00 | 67 | 1011.7 |
| 20260905205010 | 91 | 92 | 4.3 | 13.9 | 0.00 | 0.00 | 0.00 | 66 | 1011.8 |
| 20260905204523 | 92 | 77 | 6.1 | 11.3 | 0.00 | 0.00 | 0.00 | 65 | 1011.8 |
| 20260905204011 | 92 | 71 | 5.2 | 13.9 | 0.00 | 0.00 | 0.00 | 64 | 1011.8 |
| 20260905203515 | 92 | 37 | 8.7 | 13.9 | 0.00 | 0.00 | 0.00 | 64 | 1011.8 |
| 20260905203030 | 92 | 323 | 7.0 | 12.2 | 0.00 | 0.00 | 0.00 | 63 | 1011.8 |
| 20260905202514 | 92 | 4 | 3.5 | 9.6 | 0.00 | 0.00 | 0.00 | 63 | 1011.8 |
| 20260905202013 | 93 | 26 | 5.2 | 10.4 | 0.00 | 0.00 | 0.00 | 62 | 1011.8 |
| 20260905201506 | 93 | 83 | 7.0 | 13.9 | 0.00 | 0.00 | 0.00 | 63 | 1011.8 |
| 20260905201007 | 92 | 67 | 7.8 | 15.6 | 0.00 | 0.00 | 0.00 | 62 | 1011.7 |
| 20260905200506 | 92 | 117 | 8.7 | 15.6 | 0.00 | 0.00 | 0.00 | 63 | 1011.7 |
| 20260905200015 | 92 | 359 | 7.0 | 11.3 | 0.00 | 0.00 | 0.00 | 63 | 1011.8 |
| 20260905195512 | 93 | 56 | 5.2 | 9.6 | 0.00 | 0.00 | 0.00 | 63 | 1011.8 |
| 20260905195009 | 92 | 98 | 2.6 | 10.4 | 0.00 | 0.00 | 0.00 | 64 | 1011.8 |
| 20260905194521 | 92 | 173 | 5.2 | 10.4 | 0.00 | 0.00 | 0.00 | 62 | 1012.0 |
| 20260905194012 | 92 | 96 | 4.3 | 14.8 | 0.00 | 0.00 | 0.00 | 64 | 1012.0 |
| 20260905193514 | 92 | 23 | 4.3 | 14.8 | 0.00 | 0.00 | 0.00 | 64 | 1012.1 |
| 20260905193023 | 92 | 55 | 6.1 | 11.3 | 0.00 | 0.00 | 0.00 | 63 | 1012.2 |
| 20260905192514 | 92 | 25 | 5.2 | 13.0 | 0.00 | 0.00 | 0.00 | 65 | 1012.3 |
| 20260905192013 | 91 | 319 | 6.1 | 13.0 | 0.00 | 0.00 | 0.00 | 65 | 1012.3 |
| 20260905191526 | 92 | 295 | 3.5 | 10.4 | 0.00 | 0.00 | 0.00 | 65 | 1012.3 |
| 20260905191011 | 91 | 359 | 3.5 | 10.4 | 0.00 | 0.00 | 0.00 | 66 | 1012.3 |
| 20260905190504 | 91 | 310 | 5.2 | 9.6 | 0.00 | 0.00 | 0.00 | 65 | 1012.3 |
| 20260905190010 | 91 | 346 | 3.5 | 7.0 | 0.00 | 0.00 | 0.00 | 66 | 1012.3 |
| 20260905185506 | 91 | 302 | 3.5 | 7.8 | 0.00 | 0.00 | 0.00 | 66 | 1012.4 |
| 20260905185006 | 90 | 326 | 4.3 | 9.6 | 0.00 | 0.00 | 0.00 | 66 | 1012.5 |
| 20260905184513 | 90 | 340 | 2.6 | 9.6 | 0.00 | 0.00 | 0.00 | 67 | 1012.5 |
| 20260905184010 | 90 | 23 | 4.3 | 7.8 | 0.00 | 0.00 | 0.00 | 67 | 1012.5 |
| 20260905183509 | 90 | 328 | 5.2 | 9.6 | 0.00 | 0.00 | 0.00 | 66 | 1012.6 |
| 20260905183018 | 90 | 282 | 4.3 | 9.6 | 0.00 | 0.00 | 0.00 | 67 | 1012.7 |
| 20260905182514 | 89 | 345 | 4.3 | 7.8 | 0.00 | 0.00 | 0.00 | 67 | 1012.7 |
| 20260905182011 | 90 | 287 | 5.2 | 7.8 | 0.00 | 0.00 | 0.00 | 67 | 1012.9 |
| 20260905181523 | 90 | 312 | 6.1 | 7.8 | 0.00 | 0.00 | 0.00 | 66 | 1012.9 |
| 20260905181011 | 90 | 20 | 3.5 | 8.7 | 0.00 | 0.00 | 0.00 | 67 | 1013.0 |
| 20260905180515 | 89 | 229 | 2.6 | 8.7 | 0.00 | 0.00 | 0.00 | 67 | 1013.0 |
| 20260905180025 | 89 | 320 | 2.6 | 10.4 | 0.00 | 0.00 | 0.00 | 67 | 1013.1 |
| 20260905175505 | 89 | 89 | 3.5 | 10.4 | 0.00 | 0.00 | 0.00 | 67 | 1013.1 |
| 20260905175007 | 89 | 285 | 3.5 | 8.7 | 0.00 | 0.00 | 0.00 | 67 | 1013.1 |
| 20260905174508 | 89 | 296 | 4.3 | 7.8 | 0.00 | 0.00 | 0.00 | 66 | 1013.2 |
| 20260905174008 | 89 | 270 | 4.3 | 7.0 | 0.00 | 0.00 | 0.00 | 67 | 1013.3 |
| 20260905173510 | 88 | 314 | 3.5 | 7.0 | 0.00 | 0.00 | 0.00 | 69 | 1013.3 |
| 20260905173014 | 88 | 305 | 5.2 | 7.0 | 0.00 | 0.00 | 0.00 | 67 | 1013.4 |
| 20260905172512 | 88 | 328 | 3.5 | 7.0 | 0.00 | 0.00 | 0.00 | 68 | 1013.5 |
| 20260905172012 | 88 | 313 | 3.5 | 7.0 | 0.00 | 0.00 | 0.00 | 67 | 1013.6 |
| 20260905171538 | 88 | 292 | 2.6 | 5.2 | 0.00 | 0.00 | 0.00 | 69 | 1013.6 |
| 20260905171018 | 87 | 234 | 2.6 | 7.0 | 0.00 | 0.00 | 0.00 | 69 | 1013.7 |
| 20260905170514 | 87 | 302 | 3.5 | 7.0 | 0.00 | 0.00 | 0.00 | 69 | 1013.8 |
| 20260905170028 | 86 | 230 | 5.2 | 7.0 | 0.00 | 0.00 | 0.00 | 69 | 1013.8 |
| 20260905165512 | 86 | 276 | 5.2 | 7.0 | 0.00 | 0.00 | 0.00 | 69 | 1013.9 |
| 20260905165003 | 86 | 309 | 5.2 | 7.0 | 0.00 | 0.00 | 0.00 | 69 | 1013.9 |
| 20260905164506 | 86 | 311 | 4.3 | 7.0 | 0.00 | 0.00 | 0.00 | 70 | 1013.9 |
| 20260905164008 | 86 | 257 | 4.3 | 7.0 | 0.00 | 0.00 | 0.00 | 69 | 1014.0 |
| 20260905163506 | 86 | 247 | 4.3 | 7.8 | 0.00 | 0.00 | 0.00 | 70 | 1013.9 |
| 20260905163011 | 85 | 324 | 3.5 | 7.8 | 0.00 | 0.00 | 0.00 | 70 | 1013.9 |
| 20260905162510 | 85 | 314 | 4.3 | 7.8 | 0.00 | 0.00 | 0.00 | 69 | 1014.0 |
| 20260905162013 | 85 | 7 | 4.3 | 8.7 | 0.00 | 0.00 | 0.00 | 70 | 1013.9 |
| 20260905161520 | 85 | 290 | 5.2 | 8.7 | 0.00 | 0.00 | 0.00 | 70 | 1013.9 |
| 20260905161015 | 84 | 323 | 4.3 | 7.8 | 0.00 | 0.00 | 0.00 | 71 | 1014.0 |
| 20260905160515 | 84 | 334 | 4.3 | 7.8 | 0.00 | 0.00 | 0.00 | 71 | 1013.9 |
| 20260905160036 | 84 | 345 | 5.2 | 7.8 | 0.00 | 0.00 | 0.00 | 72 | 1013.8 |
| 20260905155511 | 83 | 13 | 5.2 | 9.6 | 0.00 | 0.00 | 0.00 | 71 | 1013.9 |
| 20260905155011 | 84 | 318 | 6.1 | 9.6 | 0.00 | 0.00 | 0.00 | 71 | 1013.9 |
| 20260905154544 | 83 | 288 | 7.0 | 9.6 | 0.00 | 0.00 | 0.00 | 71 | 1014.0 |
| 20260905154003 | 83 | 297 | 5.2 | 10.4 | 0.00 | 0.00 | 0.00 | 71 | 1014.0 |
| 20260905153510 | 83 | 292 | 7.0 | 10.4 | 0.00 | 0.00 | 0.00 | 70 | 1014.1 |
| 20260905153011 | 83 | 295 | 7.0 | 10.4 | 0.00 | 0.00 | 0.00 | 70 | 1014.1 |
| 20260905152508 | 83 | 78 | 3.5 | 9.6 | 0.00 | 0.00 | 0.00 | 72 | 1014.0 |
| 20260905152007 | 83 | 310 | 7.0 | 9.6 | 0.00 | 0.00 | 0.00 | 71 | 1013.9 |
| 20260905151516 | 83 | 309 | 3.5 | 9.6 | 0.00 | 0.00 | 0.00 | 70 | 1013.9 |
| 20260905151007 | 83 | 238 | 7.8 | 12.2 | 0.00 | 0.00 | 0.00 | 71 | 1013.9 |
| 20260905150513 | 83 | 298 | 6.1 | 13.0 | 0.00 | 0.00 | 0.00 | 71 | 1014.0 |
| 20260905150025 | 82 | 277 | 7.8 | 13.0 | 0.00 | 0.00 | 0.00 | 72 | 1013.9 |
| 20260905145514 | 82 | 256 | 6.1 | 11.3 | 0.00 | 0.00 | 0.00 | 73 | 1014.0 |
| 20260905145011 | 82 | 234 | 5.2 | 11.3 | 0.00 | 0.00 | 0.00 | 73 | 1014.0 |
| 20260905144528 | 82 | 256 | 7.8 | 11.3 | 0.00 | 0.00 | 0.00 | 74 | 1014.1 |
| 20260905144014 | 82 | 296 | 6.1 | 10.4 | 0.00 | 0.00 | 0.00 | 74 | 1014.2 |
| 20260905143510 | 82 | 262 | 6.1 | 10.4 | 0.00 | 0.00 | 0.00 | 74 | 1014.3 |
| 20260905143006 | 81 | 256 | 3.5 | 8.7 | 0.00 | 0.00 | 0.00 | 74 | 1014.2 |
| 20260905142507 | 81 | 229 | 5.2 | 9.6 | 0.00 | 0.00 | 0.00 | 74 | 1014.2 |
| 20260905142008 | 81 | 238 | 7.0 | 9.6 | 0.00 | 0.00 | 0.00 | 74 | 1014.1 |
| 20260905141512 | 81 | 300 | 7.8 | 9.6 | 0.00 | 0.00 | 0.00 | 74 | 1014.0 |
| 20260905141010 | 81 | 226 | 7.0 | 9.6 | 0.00 | 0.00 | 0.00 | 75 | 1013.8 |
| 20260905140507 | 81 | 274 | 4.3 | 9.6 | 0.00 | 0.00 | 0.00 | 76 | 1013.7 |
| 20260905140016 | 81 | 308 | 3.5 | 8.7 | 0.00 | 0.00 | 0.00 | 77 | 1013.7 |
| 20260905135509 | 80 | 307 | 3.5 | 9.6 | 0.00 | 0.00 | 0.00 | 77 | 1013.8 |
| 20260905135013 | 80 | 260 | 4.3 | 10.4 | 0.00 | 0.00 | 0.00 | 77 | 1013.8 |
| 20260905134523 | 80 | 236 | 7.0 | 10.4 | 0.00 | 0.00 | 0.00 | 77 | 1013.6 |
| 20260905134013 | 79 | 231 | 6.1 | 9.6 | 0.00 | 0.00 | 0.00 | 77 | 1013.7 |
| 20260905133515 | 79 | 202 | 5.2 | 13.0 | 0.00 | 0.00 | 0.00 | 78 | 1013.9 |
| 20260905133020 | 79 | 195 | 7.0 | 13.0 | 0.00 | 0.00 | 0.00 | 79 | 1013.9 |
| 20260905132504 | 79 | 219 | 5.2 | 13.0 | 0.00 | 0.00 | 0.00 | 80 | 1013.9 |
| 20260905132008 | 79 | 216 | 6.1 | 12.2 | 0.00 | 0.00 | 0.00 | 80 | 1013.9 |
| 20260905131508 | 79 | 327 | 7.0 | 12.2 | 0.00 | 0.00 | 0.00 | 80 | 1013.8 |
| 20260905131008 | 78 | 285 | 4.3 | 13.0 | 0.00 | 0.00 | 0.00 | 81 | 1013.9 |
| 20260905130509 | 78 | 202 | 8.7 | 13.0 | 0.00 | 0.00 | 0.00 | 80 | 1013.8 |
| 20260905130017 | 78 | 224 | 6.1 | 13.0 | 0.00 | 0.00 | 0.00 | 80 | 1013.9 |
| 20260905125512 | 78 | 214 | 5.2 | 14.8 | 0.00 | 0.00 | 0.00 | 80 | 1013.9 |
| 20260905125012 | 78 | 215 | 6.1 | 14.8 | 0.00 | 0.00 | 0.00 | 80 | 1013.9 |
| 20260905124530 | 79 | 243 | 8.7 | 14.8 | 0.00 | 0.00 | 0.00 | 79 | 1013.9 |
| 20260905124011 | 79 | 230 | 7.8 | 11.3 | 0.00 | 0.00 | 0.00 | 83 | 1013.8 |
| 20260905123512 | 80 | 240 | 4.3 | 9.6 | 0.00 | 0.00 | 0.00 | 84 | 1013.7 |
| 20260905123023 | 80 | 198 | 3.5 | 7.0 | 0.00 | 0.00 | 0.00 | 84 | 1013.7 |
| 20260905122518 | 79 | 188 | 3.5 | 7.0 | 0.00 | 0.00 | 0.00 | 85 | 1013.5 |
| 20260905122011 | 79 | 163 | 2.6 | 6.1 | 0.00 | 0.00 | 0.00 | 87 | 1013.5 |
| 20260905121506 | 78 | 198 | 2.6 | 6.1 | 0.00 | 0.00 | 0.00 | 88 | 1013.4 |
| 20260905121004 | 78 | 164 | 3.5 | 4.3 | 0.00 | 0.00 | 0.00 | 90 | 1013.4 |
| 20260905120504 | 77 | 94 | 0.0 | 0.0 | 0.00 | 0.00 | 0.00 | 92 | 1013.2 |
| 20260905120020 | 76 | 66 | 0.0 | 0.9 | 0.00 | 0.00 | 0.00 | 92 | 1013.1 |
| 20260905115509 | 76 | 66 | 0.0 | 0.9 | 0.00 | 0.00 | 0.00 | 92 | 1013.0 |
| 20260905115010 | 76 | 66 | 0.0 | 0.9 | 0.00 | 0.00 | 0.00 | 92 | 1013.0 |
| 20260905114516 | 76 | 66 | 0.0 | 0.9 | 0.00 | 0.00 | 0.00 | 92 | 1013.0 |
| 20260905114009 | 76 | 40 | 0.0 | 1.7 | 0.00 | 0.00 | 0.00 | 92 | 1013.0 |
| 20260905113513 | 76 | 19 | 0.9 | 1.7 | 0.00 | 0.00 | 0.00 | 92 | 1013.1 |
| 20260905113021 | 76 | 18 | 0.9 | 2.6 | 0.00 | 0.00 | 0.00 | 92 | 1013.1 |
| 20260905112512 | 76 | 336 | 0.9 | 2.6 | 0.00 | 0.00 | 0.00 | 92 | 1013.0 |
| 20260905112013 | 76 | 329 | 1.7 | 2.6 | 0.00 | 0.00 | 0.00 | 92 | 1012.9 |
| 20260905111524 | 76 | 328 | 0.9 | 2.6 | 0.00 | 0.00 | 0.00 | 91 | 1012.9 |
| 20260905111012 | 76 | 316 | 1.7 | 3.5 | 0.00 | 0.00 | 0.00 | 91 | 1012.9 |
| 20260905110504 | 76 | 311 | 2.6 | 3.5 | 0.00 | 0.00 | 0.00 | 91 | 1012.8 |
| 20260905110007 | 76 | 310 | 2.6 | 3.5 | 0.00 | 0.00 | 0.00 | 91 | 1012.8 |
| 20260905105504 | 76 | 295 | 2.6 | 3.5 | 0.00 | 0.00 | 0.00 | 91 | 1012.8 |
| 20260905105017 | 76 | 292 | 1.7 | 3.5 | 0.00 | 0.00 | 0.00 | 91 | 1012.8 |
| 20260905104522 | 76 | 309 | 1.7 | 3.5 | 0.00 | 0.00 | 0.00 | 91 | 1012.8 |
| 20260905104007 | 76 | 311 | 2.6 | 3.5 | 0.00 | 0.00 | 0.00 | 91 | 1012.8 |